This is the latest recevied weather packets stored in our database for station/object N5TDX. If no packets are shown the sender has not sent any weather packets the latest 10 day(s).
| Time | Temp. | Humidity | Pressure | Rain* | Wind** | Luminosity | Snow |
|---|---|---|---|---|---|---|---|
| 1787932633 | 35° C | 47% | 1015.6 hPa | 0 mm | - | - | - |
| 1787932327 | 34.44° C | 48% | 1015.3 hPa | 0 mm | - | - | - |
| 1787932022 | 35° C | 48% | 1015.4 hPa | 0 mm | - | - | - |
| 1787931721 | 34.44° C | 48% | 1015.7 hPa | 0 mm | - | - | - |
| 1787931420 | 34.44° C | 47% | 1015.8 hPa | 0 mm | - | - | - |
| 1787931115 | 34.44° C | 48% | 1015.4 hPa | 0 mm | - | - | - |
| 1787930815 | 34.44° C | 48% | 1015.6 hPa | 0 mm | - | - | - |
| 1787930515 | 33.89° C | 49% | 1015.2 hPa | 0 mm | - | - | - |
| 1787930210 | 33.33° C | 51% | 1015.7 hPa | 0 mm | - | - | - |
| 1787929909 | 33.89° C | 51% | 1015.7 hPa | 0 mm | - | - | - |
| 1787929609 | 33.33° C | 50% | 1015.6 hPa | 0 mm | - | - | - |
| 1787929309 | 32.78° C | 51% | 1015.1 hPa | 0 mm | - | - | - |
| 1787929007 | 32.78° C | 51% | 1015.2 hPa | 0 mm | - | - | - |
| 1787928702 | 32.22° C | 53% | 1015.2 hPa | 0 mm | - | - | - |
| 1787928400 | 32.22° C | 53% | 1015 hPa | 0 mm | - | - | - |
| 1787928099 | 31.67° C | 54% | 1015.2 hPa | 0 mm | - | - | - |
| 1787927799 | 31.67° C | 53% | 1015.2 hPa | 0 mm | - | - | - |
| 1787927494 | 31.11° C | 54% | 1015.4 hPa | 0 mm | - | - | - |
| 1787927189 | 31.11° C | 55% | 1015.1 hPa | 0 mm | - | - | - |
| 1787926890 | 31.11° C | 54% | 1015.3 hPa | 0 mm | - | - | - |
| 1787926584 | 30.56° C | 55% | 1015.6 hPa | 0 mm | - | - | - |
| 1787926283 | 30.56° C | 55% | 1015.4 hPa | 0 mm | - | - | - |
| 1787925978 | 30° C | 57% | 1015.3 hPa | 0 mm | - | - | - |
| 1787925673 | 29.44° C | 59% | 1015.6 hPa | 0 mm | - | - | - |
| 1787925362 | 29.44° C | 58% | 1015.3 hPa | 0 mm | - | - | - |
* Rain latest hour (hover to see other rain measurements)
** Current wind speed in m/s (hover to see current wind gust speed)